Regional Weather Roundup
Issued by NWS Goodland, KS

Home | Current Version | Previous Version | Text Only | Print | Product List | Glossary Off
Versions: 1 2 3 4 5 6 7 8 9 10 11 12 13 14 15 16 17 18 19 20 21 22 23 24 25 26 27 28 29 30 31 32 33 34 35 36 37 38 39 40 41 42 43 44 45 46 47 48 49 50

000
ASUS43 KGLD 231108
RWRGLD

GOODLAND FORECAST AREA HOURLY WEATHER ROUNDUP
NATIONAL WEATHER SERVICE GOODLAND KS
500 AM MDT WED JUL 23 2014

...OFFICIAL OBSERVATIONS...

CITY           SKY/WX    TMP DP  RH WIND       PRES   REMARKS
GOODLAND KS    CLOUDY    68  67  96 E17       30.30R
HILL CITY KS   CLOUDY    73  67  81 NE13      30.25R
IMPERIAL NEB   PTCLDY    68  65  90 SE10      30.28S
MCCOOK NEB     MOCLDY    68  65  90 NE5       30.26S
AKRON CO       CLOUDY    66  64  93 SE18      30.31R
BURLINGTON CO  FOG       68  67  96 E13       30.30R VSB 1/4
LIMON CO       CLEAR     60  55  83 N3        30.35R
$$

...UNOFFICIAL OBSERVATIONS...

CITY           SKY/WX    TMP DP  RH WIND       PRES   REMARKS
COLBY KS       CLOUDY    70  70 100 E17       30.29S
GOVE KS          N/A     71  32  23 MISG        N/A
LENORA KS        N/A     69  32  25 MISG        N/A
NORTON KS      CLEAR     70  61  73 N10       30.25R
OBERLIN KS     FAIR      68  64  88 SE7       30.25F
SHARON SPRINGS   N/A     68  65  90 E7          N/A
ST FRANCIS KS  CLOUDY    70  64  83 E13       30.29R
TRIBUNE KS     CLEAR     64  57  77 CALM      30.26
WAKEENEY KS      N/A     69  67  92 MISG        N/A
KIT CARSON CO    N/A     65  58  77 CALM        N/A
WRAY CO          N/A     70  68  94 E13G25    30.29
YUMA CO          N/A     68  65  90 E14         N/A
$$



USA.gov is the U.S. government's official web portal to all federal, state and local government web resources and services.